RH
25 25 25 25 24 23 22 21 19 17 15 13 12 12 12 12 12 12 12 11 11 10 10 10 10 10 10 10 10 9 9 8 8 8 7 7 8 9 11 13 13 12 10 9 9 10 13 13 12 12 13 13 12 11 11 12 12 12 13 14 14 14 13 11 13 15 18 18 19 19 18 19 19 19 18 18 19 18 22 23 23 29 29 31 39 46 49 51
28 28 28 27 26 24 22 20 18 17 15 13 12 13 13 13 13 12 12 11 11 11 11 11 11 10 10 10 10 9 9 8 8 8 8 7 9 9 11 13 14 13 12 10 9 11 13 14 13 12 13 13 12 11 11 12 12 12 13 14 14 13 11 10 13 17 20 19 19 19 18 20 18 18 17 17 21 19 27 33 28 33 35 36 41 46 48 49
29 28 28 28 25 24 23 22 21 18 16 14 13 13 14 14 14 12 12 12 11 11 11 11 11 10 10 10 9 9 8 9 9 9 9 8 9 10 11 13 14 13 12 10 9 11 14 14 13 13 12 13 12 12 12 12 11 12 12 14 14 13 12 11 14 19 21 20 20 19 18 19 17 18 17 17 19 15 26 37 33 38 41 40 43 45 47 48
28 29 29 28 26 24 25 24 23 22 20 17 15 14 15 15 14 12 11 11 11 11 11 11 11 10 10 9 9 9 8 12 15 15 13 10 10 10 11 12 13 13 12 10 9 11 13 13 15 15 14 14 14 13 13 12 11 12 12 13 13 13 13 13 16 19 21 20 21 19 17 19 17 17 19 17 17 14 22 34 35 38 40 39 42 42 42 44
29 29 28 28 26 26 26 25 24 25 25 23 19 16 15 15 14 12 11 10 11 11 11 11 10 10 10 8 9 8 12 21 22 20 17 14 13 11 10 10 10 11 11 10 10 11 12 13 17 17 16 15 14 14 13 12 12 12 13 13 13 12 13 13 15 16 18 18 17 17 16 18 17 17 20 16 15 17 21 30 33 38 43 42 42 41 42 46
29 29 28 28 28 28 27 26 26 26 26 27 26 20 15 15 13 12 12 11 10 10 9 9 9 9 8 8 9 9 15 23 23 22 21 18 16 12 10 10 10 10 10 10 10 12 13 15 18 17 16 15 15 14 13 12 12 13 13 13 13 12 13 14 14 13 14 14 14 15 14 16 17 17 18 15 18 21 21 29 35 43 51 48 48 49 50 54
30 29 29 29 29 29 29 28 27 27 27 28 29 26 18 14 13 12 12 11 10 8 9 8 8 8 8 9 10 12 18 20 19 20 20 17 16 12 11 10 10 10 10 10 11 13 15 17 19 17 16 15 14 13 13 13 13 13 14 13 13 12 13 14 14 14 14 13 12 14 14 14 15 15 14 15 24 25 25 32 37 44 52 52 57 58 59 61
29 30 30 30 29 29 30 30 29 29 29 28 28 28 23 15 12 12 11 11 9 8 9 8 8 8 8 10 12 16 18 16 16 18 16 14 13 12 11 10 9 10 10 11 13 14 16 18 18 16 15 14 13 13 13 14 14 14 13 13 13 12 13 13 14 13 13 13 12 12 12 12 12 13 13 18 27 27 29 36 37 43 50 53 60 62 61 59
27 28 29 30 31 31 31 31 31 30 30 29 27 26 25 18 12 12 11 10 9 9 9 9 9 8 9 11 14 21 19 15 18 17 13 11 10 10 11 9 9 10 11 12 15 15 16 17 15 13 13 13 13 13 13 14 14 14 14 14 13 12 12 13 14 13 14 13 12 12 12 12 11 13 13 19 33 33 32 39 40 45 51 53 58 61 59 55
26 26 27 28 29 31 31 31 31 30 28 27 25 24 24 18 13 12 11 10 10 10 10 9 9 9 11 12 18 26 21 15 18 15 11 9 8 10 9 9 9 10 11 14 16 15 15 16 13 13 13 13 13 13 13 14 14 13 13 14 13 13 13 13 13 13 13 13 13 12 11 13 12 15 14 18 35 38 37 45 45 47 53 58 60 60 55 52
24 24 24 24 25 27 29 30 30 29 26 24 23 22 21 19 15 13 11 10 10 10 10 10 9 10 11 12 21 29 21 14 14 12 10 8 7 8 8 9 9 9 12 14 15 15 15 15 13 14 14 14 13 13 13 13 14 13 12 13 13 14 12 12 13 12 13 13 13 12 12 14 15 16 16 20 31 36 40 48 48 49 52 56 58 56 53 53
23 22 22 21 22 23 24 26 27 26 23 22 22 22 21 19 17 15 12 11 10 11 11 11 10 10 11 13 19 24 18 13 11 10 10 8 7 8 9 9 9 11 13 14 15 14 14 14 12 13 15 15 14 15 15 14 13 12 12 12 12 13 12 12 12 11 13 13 13 13 14 15 15 15 18 24 31 35 43 50 48 48 49 52 55 55 55 54
21 20 20 19 20 20 21 21 21 21 20 19 21 22 21 20 19 17 14 12 10 11 11 11 11 10 13 17 16 16 14 12 9 10 10 8 9 10 10 10 11 13 13 14 15 14 13 13 12 13 15 16 15 15 16 14 13 12 12 12 12 12 11 11 12 12 12 12 13 15 16 16 15 16 21 29 32 34 45 51 47 48 51 53 55 55 55 53
19 19 19 19 18 18 18 18 17 16 16 16 19 21 21 19 19 18 17 15 12 11 11 11 12 13 16 18 15 14 12 11 11 10 10 9 9 10 10 11 12 14 14 15 15 14 13 12 12 13 13 13 14 15 15 16 15 13 13 12 12 12 12 11 13 14 13 13 15 15 16 17 15 19 25 30 31 30 39 46 44 46 55 57 57 56 53 53
17 18 18 17 17 16 15 15 14 14 14 15 15 18 20 19 19 18 18 18 16 14 11 12 15 18 22 22 18 15 12 11 11 10 10 10 9 10 10 10 11 13 14 15 15 14 13 12 12 13 13 14 15 15 15 17 16 14 15 14 13 14 15 14 14 15 16 16 16 15 17 18 16 22 28 30 34 32 31 40 41 43 54 59 59 58 55 56
15 16 16 16 16 15 14 13 12 13 14 14 13 15 18 19 19 19 19 17 17 17 13 15 21 23 26 26 21 18 13 11 11 10 11 11 11 11 10 9 10 11 13 15 14 13 13 12 11 11 13 15 17 17 16 17 17 16 17 17 17 18 16 15 15 16 17 20 18 16 18 18 19 26 31 33 38 36 30 36 41 42 48 52 53 54 55 58
14 15 15 15 14 14 13 13 13 13 13 14 13 14 16 18 18 19 20 19 18 17 14 17 23 25 26 24 21 19 14 11 12 11 11 12 12 13 12 10 11 11 13 13 12 13 13 12 12 12 14 16 17 17 18 20 20 21 21 20 22 20 18 19 19 19 20 23 22 19 19 19 22 29 31 30 34 36 32 34 40 42 45 45 45 47 50 54
14 14 14 14 14 14 13 13 14 14 14 14 14 17 19 19 20 20 20 20 19 19 17 17 22 29 29 26 25 23 17 14 13 12 12 13 14 15 14 13 14 13 13 13 13 12 12 12 12 14 16 17 17 19 22 22 23 29 30 26 26 24 21 22 22 21 22 24 26 24 20 20 25 30 32 29 30 36 36 35 40 42 45 47 45 45 46 50
14 14 14 15 15 15 14 15 15 15 15 16 18 25 27 28 32 32 28 23 21 20 20 20 22 28 29 26 26 25 22 19 16 13 13 14 15 15 15 14 15 15 15 16 17 15 14 14 14 17 19 19 19 20 22 22 23 35 40 34 32 30 24 24 23 23 24 27 27 26 22 21 26 28 30 29 30 37 37 35 41 43 44 48 48 46 45 49
15 14 14 14 15 15 15 15 16 16 18 18 23 31 34 35 40 43 37 30 24 19 20 23 22 23 24 25 27 26 23 21 18 16 15 16 16 16 16 15 15 15 17 19 22 21 18 19 21 23 24 24 25 25 24 24 27 35 42 39 33 29 27 25 24 25 28 30 29 28 25 23 24 26 27 28 30 37 37 34 39 44 43 43 45 46 45 48
16 16 15 15 15 15 15 16 18 19 19 18 23 30 31 32 35 38 36 32 27 20 21 25 22 22 24 25 28 26 23 22 19 19 17 16 16 16 16 16 16 19 20 20 23 24 21 22 25 25 26 28 31 32 30 31 33 34 40 41 33 29 29 28 27 27 30 33 31 30 29 25 25 27 29 29 30 36 39 37 37 43 44 42 43 44 43 46
18 18 17 16 16 17 15 16 18 20 20 19 21 25 25 27 29 31 29 28 26 20 22 25 23 24 24 25 29 28 24 23 20 19 18 17 16 17 16 17 17 21 23 23 24 26 23 24 25 24 27 30 31 34 34 33 33 33 37 40 35 31 32 33 32 30 31 32 31 31 30 28 27 28 29 30 30 34 39 40 37 39 43 43 43 43 42 43
18 18 18 17 16 18 18 17 16 18 21 22 24 24 24 25 25 27 27 26 24 20 20 23 23 24 24 26 31 30 25 23 21 21 20 18 16 16 17 17 18 20 23 25 25 27 27 26 26 25 25 28 28 30 33 31 29 31 34 38 37 32 32 37 36 33 34 34 31 31 32 31 27 25 27 30 30 32 35 39 37 34 37 39 40 42 42 42
16 17 19 18 15 14 17 20 20 19 21 23 27 29 28 27 25 27 29 28 24 19 19 21 23 23 23 26 30 28 26 23 22 25 25 23 19 18 18 17 19 21 22 22 23 24 25 24 26 27 27 29 29 27 28 27 26 27 30 34 34 31 31 35 39 40 40 39 36 34 36 35 30 26 29 32 31 33 35 35 34 32 35 37 38 40 41 42
16 15 17 19 18 14 13 17 22 25 27 28 29 33 34 31 30 30 31 34 28 21 22 25 26 24 22 26 27 29 29 23 23 27 27 26 26 22 20 19 20 21 21 22 23 23 24 25 26 27 28 29 28 26 25 24 23 23 26 28 27 29 31 32 38 43 42 42 41 37 39 43 36 28 30 32 29 31 33 32 31 33 38 40 39 39 40 40
20 16 15 16 18 17 13 14 21 27 29 29 30 36 37 32 32 32 36 44 39 29 30 34 33 29 25 27 28 30 29 24 26 31 28 27 29 26 22 23 22 21 22 23 24 24 27 30 28 27 28 28 28 26 24 23 21 21 24 24 22 25 31 32 35 42 43 42 41 38 40 46 40 30 28 29 27 29 32 32 34 37 39 41 41 40 39 39
23 21 17 15 15 17 16 15 20 25 26 30 33 37 37 32 31 34 42 56 51 37 35 36 34 34 31 31 32 32 30 27 28 31 30 29 30 27 25 25 24 22 22 24 26 29 34 34 30 27 25 26 27 26 24 22 20 21 22 22 24 25 29 32 34 38 40 37 38 40 38 40 39 32 29 29 27 32 35 34 36 38 37 39 43 43 40 41
24 24 22 19 16 17 17 16 17 19 23 29 32 32 32 31 32 38 51 63 54 37 35 35 34 35 34 35 36 33 32 32 32 33 33 33 32 30 26 23 24 24 23 24 27 32 37 36 31 27 24 24 25 23 24 23 19 21 22 23 25 25 27 31 32 35 36 33 37 40 35 33 36 33 31 30 28 34 38 35 35 36 37 40 45 45 41 40
22 22 23 23 21 20 20 19 20 20 21 25 29 28 28 30 35 45 61 65 50 37 36 36 36 37 36 38 40 35 33 33 33 35 36 35 35 33 27 26 26 27 26 25 27 30 33 33 29 27 26 26 25 21 20 22 22 24 27 27 25 24 27 28 30 33 36 37 38 37 33 32 36 34 33 33 33 37 40 38 35 36 38 41 44 45 41 40
22 21 21 22 23 24 24 25 27 27 25 26 28 27 26 30 40 56 67 59 44 40 40 39 38 38 37 39 40 36 33 32 32 37 38 36 37 33 28 28 28 28 29 27 26 26 28 29 27 26 26 25 24 24 21 21 27 32 33 34 30 28 29 29 32 34 36 43 43 36 33 37 42 40 36 36 36 38 42 41 39 38 39 42 44 45 42 43
23 21 20 20 22 24 25 28 32 34 34 33 31 29 28 31 43 60 61 45 40 43 42 41 42 40 41 42 41 37 31 31 35 40 39 35 36 33 27 27 27 27 30 30 27 25 26 29 28 27 27 25 24 26 25 23 27 33 37 38 37 37 35 33 38 40 40 45 43 36 36 41 45 41 37 38 35 37 43 42 41 41 40 43 45 44 43 46
22 23 21 20 20 22 25 29 32 34 36 35 31 27 29 38 48 53 47 39 46 49 43 44 45 44 45 45 44 40 33 32 35 36 35 33 35 32 26 28 28 28 31 32 31 29 29 29 27 26 26 25 24 25 25 25 24 29 35 36 35 38 41 43 45 44 43 44 42 40 43 46 46 41 40 41 37 37 42 41 41 42 41 43 44 43 46 48
19 21 21 22 21 21 23 27 31 34 33 30 29 27 35 51 54 44 37 38 48 50 46 46 46 44 45 45 43 41 35 34 35 36 37 36 38 35 29 27 27 30 35 36 34 32 34 33 27 26 28 27 26 24 24 26 26 29 32 34 33 33 38 46 47 45 45 45 44 46 49 51 49 46 46 45 41 41 41 40 40 41 40 42 43 44 47 47
16 17 18 20 21 21 22 24 29 33 31 29 31 33 44 57 50 36 34 37 41 46 47 48 48 45 44 44 43 41 37 37 38 40 42 41 41 39 34 31 29 30 35 39 40 36 38 43 38 34 36 35 31 28 25 24 27 32 33 35 37 35 38 45 44 44 48 45 43 46 49 51 51 53 52 46 44 46 43 42 42 40 40 42 44 44 44 41
14 14 14 15 17 19 21 22 26 31 32 35 36 39 50 54 40 29 31 33 36 41 44 45 48 49 46 45 45 43 41 42 42 42 44 45 45 43 40 38 35 34 38 41 44 40 40 45 43 39 40 38 35 31 23 21 27 33 34 36 41 42 42 44 43 43 44 45 49 51 49 50 52 56 53 45 45 47 46 45 44 43 44 45 45 42 39 36
12 11 11 12 12 13 16 18 24 28 32 36 38 39 43 40 31 27 30 32 35 39 41 44 48 50 50 48 46 44 42 43 44 45 45 44 44 42 41 41 39 40 43 44 44 42 41 42 39 39 42 38 34 30 22 24 32 34 35 39 44 45 44 47 50 48 44 50 56 51 47 49 49 51 48 42 43 45 46 44 41 42 44 45 43 37 34 34
10 9 9 8 8 10 13 14 20 27 30 34 38 38 33 28 25 25 29 35 40 39 40 46 50 53 53 51 48 45 43 42 43 44 46 45 44 42 38 39 40 41 43 44 44 41 38 38 38 38 41 38 34 30 25 26 30 31 35 40 40 41 44 47 51 52 51 55 53 45 45 47 46 46 45 41 42 45 45 42 40 42 43 42 41 38 38 39
8 9 8 6 6 10 15 15 17 24 30 33 36 34 28 26 25 24 27 36 41 39 37 43 51 53 52 53 51 46 43 44 44 44 45 44 45 44 39 38 39 40 41 40 41 39 34 37 40 37 38 39 34 30 28 27 26 24 31 38 37 39 45 45 45 50 53 53 50 45 44 43 43 46 46 44 47 48 45 42 41 42 42 41 41 41 44 45
11 16 13 7 7 10 15 22 25 26 31 34 33 30 26 23 22 22 26 32 38 39 38 40 45 47 47 51 53 49 45 45 46 46 45 43 46 47 42 40 41 42 41 38 38 38 34 37 44 40 35 35 34 32 33 36 34 27 26 31 33 36 39 39 41 46 50 52 53 49 47 47 49 49 48 47 48 49 48 47 45 42 42 42 41 42 44 45
16 22 20 16 16 15 17 30 36 33 33 34 31 28 26 23 20 21 27 34 39 40 40 42 43 44 44 46 49 50 48 47 48 48 47 44 46 49 45 43 44 44 42 40 40 39 33 34 42 42 36 33 33 34 36 39 39 36 34 33 35 38 38 38 38 38 43 50 52 53 56 57 55 51 48 47 48 51 52 52 51 47 44 43 43 44 46 47
19 23 23 24 28 27 27 36 38 32 31 32 29 27 27 28 26 24 28 34 37 37 37 40 44 43 41 43 47 49 48 49 50 51 52 49 48 50 47 44 46 46 45 45 44 41 35 33 35 37 35 32 30 31 34 36 37 37 38 39 42 46 46 48 50 44 44 48 50 55 61 59 55 51 47 46 49 53 54 54 55 53 48 46 46 46 48 47
30 31 29 33 39 37 37 40 36 31 29 28 26 26 26 28 26 24 29 33 36 38 36 38 41 41 38 39 44 45 43 46 49 51 53 54 52 49 45 44 45 46 48 48 46 44 40 34 30 29 27 25 24 25 28 30 30 30 31 34 39 45 47 52 57 53 50 50 52 58 60 57 57 55 51 49 51 52 53 55 58 58 53 50 48 49 49 48
39 38 36 42 47 42 41 43 38 35 34 29 26 26 27 29 28 26 28 31 37 42 42 40 40 39 37 34 36 40 40 41 44 47 50 53 52 50 47 47 46 45 47 47 45 46 43 35 30 27 24 21 19 18 18 23 26 27 30 30 30 36 39 38 40 41 41 41 43 49 51 54 59 57 51 50 50 50 53 55 56 56 53 52 53 51 49 48
42 44 46 48 49 46 48 50 46 43 39 31 28 28 27 30 32 32 31 31 35 41 44 46 44 42 39 32 30 35 39 40 41 43 48 51 52 50 49 50 50 48 48 49 49 47 46 42 37 32 29 27 24 21 22 26 27 28 32 33 29 29 32 32 32 33 34 35 34 37 44 51 57 55 49 46 47 51 55 55 54 56 56 58 59 55 51 51
44 51 54 54 53 52 53 51 48 49 43 35 36 39 37 35 33 34 35 34 36 39 42 47 48 46 44 39 35 34 34 36 39 42 45 50 51 50 49 50 52 50 48 47 47 45 46 46 43 39 38 37 35 33 31 29 26 25 28 31 30 30 33 34 36 38 41 43 40 39 46 53 54 52 50 47 48 54 57 55 56 60 62 63 61 57 56 58
49 58 58 58 58 55 54 53 48 46 43 41 42 43 41 39 36 34 35 37 40 41 42 45 46 46 49 50 49 45 36 32 36 38 40 47 51 49 45 46 48 48 47 45 43 42 42 41 39 39 39 37 34 31 29 28 27 27 28 29 31 36 39 39 39 40 44 46 45 45 49 51 50 50 51 49 49 54 57 56 55 58 60 63 65 65 64 62
50 60 60 64 65 61 61 62 55 50 45 42 41 39 38 39 40 40 41 41 42 43 45 47 46 49 54 56 54 53 46 38 37 37 38 44 51 48 43 43 42 42 44 42 40 40 40 38 36 34 32 29 25 22 22 23 24 24 26 28 31 35 39 39 39 41 41 40 41 43 44 45 48 52 52 51 50 52 55 56 55 55 56 60 66 70 69 67
45 55 60 67 73 74 72 68 63 60 55 49 47 44 41 41 44 48 52 53 52 51 52 53 49 49 52 54 53 53 49 42 41 43 42 45 49 47 44 42 38 36 38 36 35 35 36 35 32 28 26 24 22 21 20 19 19 20 22 25 27 30 34 36 36 38 38 35 35 37 37 39 46 49 47 45 45 46 49 54 55 55 56 59 61 63 64 63
34 45 57 64 72 78 77 70 66 68 66 61 58 53 48 48 50 50 54 61 64 61 59 61 58 52 52 53 51 53 55 51 51 49 44 44 47 45 43 42 38 36 35 34 33 31 32 35 32 27 28 27 24 25 24 21 21 20 20 21 24 27 30 31 32 33 32 32 35 36 36 39 44 43 40 38 39 39 41 46 50 54 58 59 59 60 59 59
23 34 46 54 62 71 74 71 71 73 72 69 67 64 58 58 58 54 52 61 69 67 64 67 65 60 61 61 56 57 62 60 57 51 44 42 46 45 43 43 43 41 39 40 41 38 37 41 39 34 37 36 31 30 29 28 29 26 24 26 29 30 30 30 32 36 34 34 38 40 41 45 44 39 38 40 41 41 42 43 48 53 58 61 60 60 62 61
21 27 34 43 52 59 68 72 72 74 74 73 72 70 66 65 63 58 56 61 67 68 66 68 69 68 68 66 61 62 64 59 54 50 42 40 42 42 42 41 41 44 43 43 47 45 44 47 44 41 46 47 41 38 38 37 36 34 35 38 37 35 34 34 36 39 38 37 41 42 44 48 47 42 42 43 42 43 46 46 48 50 55 61 63 61 62 62
19 28 35 44 50 54 60 65 66 70 75 74 72 71 69 68 62 58 61 63 62 63 62 62 66 70 69 65 62 62 61 56 53 49 42 39 39 40 41 41 39 42 45 46 49 49 46 47 46 45 49 50 44 43 44 42 41 44 47 47 43 39 39 40 42 46 46 44 44 46 48 49 46 44 44 45 44 44 46 49 51 51 52 56 60 63 64 63